カタログに戻る

ASIASAT 3S

運用中通信GEO
NORAD 25657·PAYLOAD·🇸🇭 SH

打ち上げ Mar 21, 1999 から Baikonur Cosmodrome

Loading…

TLE

最新Source: Space-Track

元期: Sep 14, 2026, 22:00 UTC

1 25657U 99013A   26257.91714740 -.00000107  00000-0  00000-0 0  9991
2 25657  10.0174  53.9510 0003067  85.7273 112.0263  0.98872756100470

AllMySatでASIASAT 3Sをリアルタイム追跡

Download on the App Store